Regional Weather Roundup
Issued by NWS La Crosse, WI

Home | Current Version | Previous Version | Text Only | Print | Product List | Glossary On
Versions: 1 2 3 4 5 6 7 8 9 10 11 12 13 14 15 16 17 18 19 20 21 22 23 24 25 26 27 28 29 30 31 32 33 34 35 36 37 38 39 40 41 42 43 44 45 46 47 48 49 50
000
ASUS43 KARX 041910
RWRARX

HOURLY WEATHER FOR THE UPPER MISSISSIPPI RIVER VALLEY
NATIONAL WEATHER SERVICE LA CROSSE WI
100 PM CST MON MAR 04 2024

NOTE: "FAIR" indicates few or no clouds below 12,000 feet with no
significant weater and/or obstructions to visibility.

MNZ077-085>088-093>096-042000
Southeast Minnesota

CITY           SKY/WX    TMP DP  RH WIND       PRES   REMARKS
ROCHESTER      CLOUDY    40  31  70 NE12      29.95F WCI  33
WINONA         CLOUDY    43  34  70 SE3       29.98F
AUSTIN         DRIZZLE   39  34  81 NE9G16    29.95S WCI  33
ALBERT LEA     CLOUDY    37  28  70 N13G18    29.94F WCI  29
DODGE CENTER   LGT RAIN  36  28  75 N7        29.96F WCI  30
PRESTON        CLOUDY    39  37  93 N10       29.94S WCI  32
OWATONNA       LGT RAIN  36  32  87 NW10      29.97F WCI  28
FARIBAULT      CLOUDY    36  30  80 NE3       29.98F
$$

WIZ041-042-053>056-061-042000
Southwest Wisconsin

CITY           SKY/WX    TMP DP  RH WIND       PRES   REMARKS
LA CROSSE      LGT RAIN  40  36  86 N8        29.96F FOG     WCI  34
SPARTA         TSTM      36  36  99 CALM      29.96S
WIS DELLS      CLOUDY    48  28  46 N9        29.87F
PRAIRIE DU CHI RAIN      43  36  76 NW13      29.90R
BOSCOBEL       CLOUDY    46  32  58 N10       29.89R
LONE ROCK      CLOUDY    51  26  37 N17       29.85F
PLATTEVILLE    CLOUDY    50  24  36 NE10      29.83S
$$

WIZ017-030-034>036-043>045-042000
Central Wisconsin

CITY           SKY/WX    TMP DP  RH WIND       PRES   REMARKS
MEDFORD        CLOUDY    41  25  52 SE5       29.96S
WAUSAU         LGT SNOW  34  32  92 NW10      29.96S FOG     WCI  26
BLACK RVR FLS  RAIN      37  36  96 NE5       29.98F WCI  33
WIS RAPIDS     LGT RAIN  40  35  83 N14       29.92F WCI  32
MARSHFIELD     NOT AVBL
MAUSTON        LGT RAIN  41  38  87 N8        29.91F
CAMP DOUGLAS   LGT RAIN  40  36  86 N12       29.89F WCI  33
WAUTOMA        CLOUDY   N/A N/A N/A N3        29.91F
$$

IAZ008>011-017>019-029-030-042000
Northeast Iowa

CITY           SKY/WX    TMP DP  RH WIND       PRES   REMARKS
WATERLOO       CLOUDY    44  37  76 NE15G26   29.88S
DUBUQUE        CLOUDY    56  40  55 NE10      29.80F
DECORAH        LGT RAIN  37  37 100 N12G17    29.90S WCI  30
MASON CITY     CLOUDY    42  34  73 NE14      29.94R
CHARLES CITY   CLOUDY    43  41  93 NE14      29.91S
OELWEIN        CLOUDY    41  39  93 NE20G25   29.88R
$$

Wind speeds are in miles per hour.

 Abbreviations used in the REMARKS:
VSB - Visibility in statute miles
WCI - Wind chill index
HX  - Heat Index



USA.gov is the U.S. government's official web portal to all federal, state and local government web resources and services.